{"data":{"norad_id":52876,"intl_designator":"2022-062AY","name":"STARLINK-4200","alt_names":[],"object_type":"PAYLOAD","status":"ACTIVE","operator":null,"country":"US","launch_date":"2022-06-17","launch_site_code":"AFETR","launch_vehicle":null,"mission":null,"orbit_class":"UNKNOWN","rcs_meters":null,"size_class":null,"mass_kg":null,"dimensions":null,"purposes":["comms"],"wikipedia_slug":null,"has_3d_model":false,"image_url":null,"decayed_at":null,"tle_current":{"epoch":"2026-09-20T02:39:07.494624Z","epoch_age_seconds":103003,"freshness":"FRESH","line1":"1 52876U 22062AY  26263.11050341  .00000929  00000+0  41698-4 0  9995","line2":"2 52876  53.1588 206.6865 0001238  93.2507 266.8636 15.31703687235618","mean_motion":15.31703687,"eccentricity":0.0001238,"inclination_deg":53.1588,"raan_deg":206.6865,"arg_perigee_deg":93.2507,"mean_anomaly_deg":266.8636,"bstar":4.1698e-5,"rev_number":23561,"period_min":94.012961659731,"perigee_km":469.88111488119,"apogee_km":471.57689410391,"semimajor_km":6848.8660044926,"source":"CELESTRAK","updated_at":"2026-09-20T09:00:40.137266Z"}}}